Regional Weather Roundup
Issued by NWS

Home | Current Version | Previous Version | Text Only | Print | Product List | Glossary Off
Versions: 1 2 3 4 5 6 7 8 9 10 11 12 13 14 15 16 17 18 19 20 21 22 23 24 25 26 27 28 29 30 31 32 33 34 35 36 37 38 39 40 41 42 43 44 45 46 47 48 49 50

000
ASUS43 KFSD 051510
RWRSD

WEATHER ROUNDUP FOR SOUTH DAKOTA
NATIONAL WEATHER SERVICE SIOUX FALLS SD
900 AM CST THU MAR 05 2015

NOTE: "FAIR" INDICATES FEW OR NO CLOUDS BELOW 12,000 FEET WITH NO
SIGNIFICANT WEATHER AND/OR OBSTRUCTIONS TO VISIBILITY.


SDZ001>005-009-010-012>017-051600-
NORTHWEST AND NORTH CENTRAL SOUTH DAKOTA

CITY           SKY/WX    TMP DP  RH WIND       PRES   REMARKS
BUFFALO          N/A     14   5  67 CALM      30.00S
FAITH            N/A     10   1  67 S12       30.14S WCI  -5
MOBRIDGE       SUNNY      4  -3  73 S15       30.21S WCI -14
$$

SDZ012>016-024>037-041>051-057-063-072>074-051600-
SOUTHWEST AND SOUTH CENTRAL SOUTH DAKOTA

CITY           SKY/WX    TMP DP  RH WIND       PRES   REMARKS
RAPID CTY ARPT SUNNY      9   2  73 CALM      30.13S
PIERRE         MOSUNNY    1  -3  83 SE7       30.29R WCI -12
CUSTER         MOSUNNY   22  -1  36 W14       30.04R WCI   9
ELLSWORTH AFB  PTSUNNY   13   4  69 W3        30.11R
PHILIP         SUNNY      1  -4  79 CALM      30.23S
PINE RIDGE     MOSUNNY    5  -1  76 W3        30.19R
SPEARFISH      FAIR      28   5  37 MISG      30.09R
WINNER         FAIR      12   0  58 S15       30.29S WCI  -4
$$

SDZ004>011-016>023-039-040-051600-
NORTHEAST SOUTH DAKOTA

CITY           SKY/WX    TMP DP  RH WIND       PRES   REMARKS
ABERDEEN       MOSUNNY   -4 -12  68 S10       30.38R WCI -21
WATERTOWN      MOSUNNY   -7 -13  75 SE7       30.36S WCI -21
SISSETON         N/A      2  -9  60 SW10      30.40R WCI -14
$$

SDZ017-020-022-023-036>040-048>070-051600-
SOUTHEAST SOUTH DAKOTA

CITY           SKY/WX    TMP DP  RH WIND       PRES   REMARKS
SIOUX FALLS    SUNNY      2  -6  69 S8        30.46R WCI -12
HURON          MOSUNNY    0  -9  65 S13       30.40S WCI -18
CHAMBERLAIN    MOSUNNY    2  -3  79 SE3       30.34S
MITCHELL       SUNNY      5  -2  72 S12       30.43S WCI -11
YANKTON        SUNNY      3   0  85 SE6       30.49S WCI  -8
$$

ABBREVIATIONS USED IN REMARKS
   TC - TEMPERATURE IN CELSIUS
  WCI - WIND CHILL INDEX
   HX - HEAT INDEX
  VSB - VISIBILITY




USA.gov is the U.S. government's official web portal to all federal, state and local government web resources and services.